Regional Weather Roundup
Issued by NWS

Home | Current Version | Previous Version | Text Only | Print | Product List | Glossary Off
Versions: 1 2 3 4 5 6 7 8 9 10 11 12 13 14 15 16 17 18 19 20 21 22 23 24 25 26 27 28 29 30 31 32 33 34 35 36 37 38 39 40 41 42 43 44 45 46 47 48 49 50

000
ASUS43 KLSX 271707
RWRMO

WEATHER SUMMARY FOR MISSOURI
NATIONAL WEATHER SERVICE SPRINGFIELD MO
1200 PM CDT SAT MAY 27 2017

NOTE: "FAIR" INDICATES FEW OR NO CLOUDS BELOW 12,000 FEET WITH NO
       SIGNIFICANT WEATHER AND/OR OBSTRUCTIONS TO VISIBILITY.
       CURRENT SKY AND/OR WEATHER CONDITIONS ARE NOT AVAILABLE FOR
       CHILLICOTHE AND FARMINGTON.

MOZ001>031-035>038-043-044-053-054-271800-
...NORTHERN AND WESTERN MISSOURI...

CITY           SKY/WX    TMP DP  RH WIND       PRES   REMARKS
KANSAS CTY INT CLOUDY    65  62  90 N7        29.94R
KANSAS C DTWN  CLOUDY    69  61  75 N15G25    29.90R
LEE`S SUMMIT   PTSUNNY   73  59  61 NE17      29.89F
ST JOSEPH      LGT RAIN  63  62  97 SW7       29.94R
CHILLICOTHE      N/A     68  63  84 E5        29.91F
KIRKSVILLE     CLOUDY    75  63  66 NW7       29.91F

$$
MOZ066>068-077>081-088>096-101>105-271800-
...SOUTHWEST MISSOURI...

CITY           SKY/WX    TMP DP  RH WIND       PRES   REMARKS
SPRINGFIELD    SUNNY     83  74  74 S14       29.85F
JOPLIN         CLOUDY    82  75  79 S15       29.82F
BRANSON        MOSUNNY   84  72  65 S8        29.89F

$$
MOZ032>034-039>042-045>050-055>058-069>072-271800-
...CENTRAL MISSOURI...

CITY           SKY/WX    TMP DP  RH WIND       PRES   REMARKS
COLUMBIA       MOSUNNY   82  63  52 E7        29.87F
JEFFERSON CITY CLOUDY    82  64  54 E8        29.84F
ROLLA          CLOUDY    74  71  91 E5        29.88S THUNDER
SEDALIA        PTSUNNY   81  69  67 NE10      29.88S
WHITEMAN AFB   PTSUNNY   78  73  86 NE8       29.85F
WARRENSBURG    CLOUDY    72  64  78 N15       29.86F
OSAGE BEACH    LGT RAIN  71  70  96 NW5       29.89R

$$
MOZ051-052-059>065-271800-
...EAST CENTRAL MISSOURI...

CITY           SKY/WX    TMP DP  RH WIND       PRES   REMARKS
ST LOUIS INTL  MOSUNNY   83  64  52 E7        29.89R
SPIRIT OF STL  MOSUNNY   81  64  56 CALM      29.87R
ST CHARLES     SUNNY     79  66  64 N10       29.87S

$$
MOZ072>076-082>087-097>100-106>115-271800-
...SOUTH CENTRAL AND SOUTHEAST MISSOURI...

CITY           SKY/WX    TMP DP  RH WIND       PRES   REMARKS
CAPE GIRARDEAU MOSUNNY   83  68  60 S12       29.87S
FARMINGTON     CLOUDY    79  71  76 VRB6      29.89F
POPLAR BLUFF   PTSUNNY   81  74  79 SW15      29.87S
WEST PLAINS    PTSUNNY   82  73  74 W7        29.91R

$$



USA.gov is the U.S. government's official web portal to all federal, state and local government web resources and services.